#timestamp,LO_Frequency,Hit,StdDev 
1584058915.8,286046996.3,P
1584058935.7,286046996.3,N
1584058955.5,286046995.7,P
1584058975.3,286046995.1,Y
1584058995.2,286047000.0,P
1584059015.0,286047000.0,N
1584059015.9,286047000.0,N
1584059035.8,286047001.8,N
1584059055.6,286047002.6,N
1584059075.4,286047002.1,N
1584059095.3,286047004.0,N
1584059115.1,286047002.2,N
1584059135.8,286047002.7,N
1584059155.7,286047002.7,N
1584059175.5,286047002.6,N
1584059195.4,286047002.4,N
1584059215.2,286047000.9,N
1584059235.0,286047000.0,N
1584059235.9,286047000.0,N
1584059255.8,286047000.8,N
1584059275.6,286046999.3,N
1584059295.5,286046998.4,N
1584059315.3,286046998.6,N
1584059335.1,286047001.0,N
1584059355.9,286047002.7,N
1584059375.7,286047002.7,N
1584059395.5,286047002.7,N
1584059415.4,286047002.0,N
1584059435.2,286046999.7,N
1584059455.1,286047001.7,N
1584059456.0,286047001.7,N
1584059475.8,286047004.4,N
1584059495.6,286047001.8,N
1584059515.5,286047004.1,N
1584059535.3,286047004.1,N
1584059555.2,286047001.5,N
1584059575.9,286047003.5,N
1584059595.7,286047004.0,N
1584059615.6,286047004.2,N
1584059635.4,286047001.4,N
1584059655.2,286047001.5,N
1584059675.1,286047004.1,N
1584059676.0,286047004.1,N
1584059695.8,286047001.7,N
1584059715.7,286047003.9,N
1584059735.5,286047004.0,N
1584059755.3,286047001.9,N
1584059775.2,286047003.9,N
1584059795.0,286047001.5,N
1584059795.9,286047001.5,N
1584059815.8,286047002.5,N
1584059835.6,286047002.5,N
1584059855.4,286047000.2,N
1584059875.3,286047001.4,N
1584059895.1,286047001.5,N
1584059915.8,286047004.3,Y
1584059935.7,286047002.8,P
1584059955.5,286046999.7,N
1584059975.4,286047002.5,N
1584059995.2,286047002.3,N
1584060015.0,286046999.8,N
1584060015.9,286046999.8,N
1584060035.8,286047000.3,N
1584060055.6,286047000.0,N
1584060075.5,286047000.9,N
1584060095.3,286047002.4,N
1584060115.1,286047000.4,N
1584060135.9,286046998.3,N
1584060155.7,286046998.5,N
1584060175.5,286046998.5,N
1584060195.4,286046999.9,N
1584060215.2,286047000.4,N
1584060235.1,286047000.4,N
1584060236.0,286047000.4,N
1584060255.8,286047000.5,N
1584060275.6,286047000.9,N
1584060295.5,286047002.2,N
1584060315.3,286047004.3,Y
1584060335.2,286047001.4,P
1584060355.9,286047003.8,P
1584060375.7,286047002.4,N
1584060395.6,286047001.7,N
1584060415.4,286046999.8,N
1584060435.2,286047000.4,N
1584060455.1,286047002.8,N
1584060456.0,286047002.8,N
1584060475.8,286046998.5,N
1584060495.7,286046999.5,N
1584060515.5,286046999.6,N
1584060535.3,286046998.4,N
1584060555.2,286046998.9,N
1584060575.0,286046998.3,N
1584060575.9,286046998.3,N
1584060595.8,286047000.6,N
1584060615.6,286046998.7,N
1584060635.4,286046998.7,N
1584060655.3,286047001.2,N
1584060675.1,286046999.3,N
1584060695.8,286046997.6,N
1584060715.7,286046997.6,N
1584060735.5,286046997.7,N
1584060785.4,286046997.9,E
1584060795.3,286046999.2,N
1584060815.1,286047000.2,P
1584060835.9,286047000.4,N
1584060855.7,286047000.1,N
1584060875.6,286047001.6,Y
1584060895.4,286047001.9,P
1584060915.2,286047003.7,P
1584060935.1,286047003.3,N
1584060936.0,286047003.3,N
1584060955.8,286047005.4,Y
1584060975.7,286047002.4,P
1584060995.5,286046998.1,P
1584061015.3,286046998.8,N
1584061035.2,286046998.2,N
1584061055.0,286046998.1,N
1584061055.9,286046998.1,N
1584061075.8,286047001.1,N
1584061095.6,286046998.5,N
1584061115.4,286046998.9,N
1584061135.3,286047000.3,N
1584061155.1,286046998.3,N
1584061175.8,286047001.2,N
1584061195.7,286047000.7,N
